Regional Weather Roundup
Issued by NWS Sioux Falls, SD

Home | Current Version | Previous Version | Text Only | Print | Product List | Glossary On
Versions: 1 2 3 4 5 6 7 8 9 10 11 12 13 14 15 16 17 18 19 20 21 22 23 24 25 26 27 28 29 30 31 32 33 34 35 36 37 38 39 40 41 42 43 44 45 46 47 48 49 50
000
ASUS43 KFSD 212210
RWRFSD

WEATHER ROUNDUP FOR SE SOUTH DAKOTA/SW MINNESOTA/NW IOWA
NATIONAL WEATHER SERVICE SIOUX FALLS SD
500 PM CDT TUE OCT 21 2014

NOTE: "FAIR" INDICATES FEW OR NO CLOUDS BELOW 12,000 FEET WITH NO
SIGNIFICANT WEATHER AND OR OBSTRUCTIONS TO VISIBILITY.


SDZ038>040-050-052>070-212300-
SOUTHEAST SOUTH DAKOTA

CITY           SKY/WX    TMP DP  RH WIND       PRES   REMARKS
CHAMBERLAIN    SUNNY     78  36  21 S21G30    29.83S
HURON          SUNNY     80  39  23 S13G24    29.85F
MADISON        FAIR      72  45  37 S15G23    29.96F
MITCHELL       SUNNY     80  37  21 S21G31    29.89F
SIOUX FALLS    SUNNY     72  44  36 SE13G23   29.97F
WINNER         FAIR      80  31  16 S28G33    29.83F
YANKTON        SUNNY     77  45  31 S18G24    29.94F
$$

MNZ071-072-080-081-089-090-097-098-212300-
SOUTHWEST MINNESOTA

CITY           SKY/WX    TMP DP  RH WIND       PRES   REMARKS
FAIRMONT       SUNNY     64  37  36 SE15      30.09S
JACKSON        SUNNY     66  37  34 SE13      30.07S
LUVERNE        SUNNY     73  39  29 S16       30.00S
MARSHALL       SUNNY     72  41  33 S17       29.99S
MONTEVIDEO     SUNNY     66  39  37 S18G26    30.01S
PIPESTONE      SUNNY     72  39  30 S16       30.00S
REDWOOD FALLS  SUNNY     67  39  35 SE18      30.04S
TRACY          SUNNY     69  42  37 SE16      30.02S
WINDOM         SUNNY     66  39  37 SE13      30.06R
WORTHINGTON    SUNNY     70  39  32 SE12G17   30.05S
$$

IAZ001>003-012>014-020>022-031-032-NEZ013-014-SDZ071-212300-
NORTHWEST IOWA

CITY           SKY/WX    TMP DP  RH WIND       PRES   REMARKS
CHEROKEE       SUNNY     72  41  33 SE9       30.03S
DENISON        SUNNY     72  39  30 SE7       30.03S
ESTHERVILLE    SUNNY     65  41  41 SE15      30.08S
LE MARS        SUNNY     73  43  33 S12G20    30.01F
ORANGE CITY    SUNNY     75  37  25 S10       30.02S
SHELDON        SUNNY     72  41  33 SE16G22   30.01F
SIOUX CITY     SUNNY     75  43  31 S12G18    30.01S
SPENCER        SUNNY     69  42  37 SE14      30.06S
STORM LAKE     SUNNY     70  41  35 SE12G17   30.07S
$$

ABBREVIATIONS USED IN REMARKS
   TC - TEMPERATURE IN CELSIUS
  WCI - WIND CHILL INDEX
   HX - HEAT INDEX
  VSB - VISIBILITY




USA.gov is the U.S. government's official web portal to all federal, state and local government web resources and services.